Location: Codford Saint Peter
(51.1597°N, 2.0531°W)
Time: 14:17:17
(UTC+00:00)

ELECTRON R/B - Visible Passes

Search period start: 28 November 2021 00:00
Search period end: 08 December 2021 00:00
Orbit: 485 x 498 km, 40.0° (Epoch: 27 November)

Date Brightness Start Highest point End Pass type
(mag) Time Alt. Az. Time Alt. Az. Time Alt. Az.
04 Dec ? 06:53:22 10° SSW 06:55:34 15° S 06:57:46 10° SE visible
05 Dec ? 06:28:17 10° SSW 06:30:29 15° S 06:32:42 10° SE visible
06 Dec ? 06:03:12 10° SSW 06:05:24 15° S 06:07:37 10° SE visible
07 Dec ? 05:38:57 13° SSW 05:40:19 15° S 05:42:32 10° SE visible
07 Dec ? 07:16:51 10° SW 07:18:46 14° SSW 07:20:42 10° SSE visible
